Tracking 30258 objects as of 19-Feb-2025
HD Live streaming from Space Station
objects crossing your sky now

OBJECT K

Track OBJECT K now!
10-day predictions


NORAD ID: 61236
Int'l Code: 2024-173J
Perigee: 435.0 km
Apogee: 455.7 km
Inclination: 97.4 °
Period: 93.3 minutes
Semi major axis: 6816 km
RCS: Unknown
Launch date: September 24, 2024
Source: People's Republic of China (PRC)
Launch site: Yellow Sea Launch Area, China (YSLA)
Your satellite tracking list
Your tracking list is empty




NASA's NSSDC Master Catalog

Two Line Element Set (TLE):
1 61236U 24173K   25050.22202882  .00091241  00000-0  20649-2 0  9993
2 61236  97.4183 129.9926 0015217 134.6337 225.6154 15.42678068 22717
Source of the keplerian elements: AFSPC